TimeCST,TemperatureF,Dew PointF,Humidity,Sea Level PressureIn,VisibilityMPH,Wind Direction,Wind SpeedMPH,Gust SpeedMPH,PrecipitationIn,Events,Conditions,WindDirDegrees,DateUTC
12:53 AM,44.1,41.0,89,30.05,5.0,North,6.9,-,N/A,,Overcast,10,2013-01-01 06:53:00
12:56 AM,44.6,41.0,87,30.03,5.0,North,5.8,-,N/A,,Overcast,10,2013-01-01 06:56:00
1:53 AM,44.1,39.9,85,30.06,6.0,NNE,4.6,-,N/A,,Overcast,20,2013-01-01 07:53:00
2:15 AM,44.6,39.2,81,30.07,6.0,North,8.1,-,N/A,,Overcast,10,2013-01-01 08:15:00
2:42 AM,44.6,39.2,81,30.07,7.0,North,9.2,-,N/A,,Overcast,360,2013-01-01 08:42:00
2:53 AM,43.0,39.0,86,30.09,7.0,North,9.2,-,N/A,,Overcast,350,2013-01-01 08:53:00
3:53 AM,42.1,39.9,92,30.11,6.0,North,5.8,-,0.00,,Overcast,350,2013-01-01 09:53:00
4:31 AM,41.0,37.4,87,30.09,6.0,NNW,9.2,-,N/A,,Overcast,330,2013-01-01 10:31:00
4:53 AM,39.9,37.0,89,30.12,7.0,NW,9.2,-,0.00,Rain,Light Rain,320,2013-01-01 10:53:00
5:06 AM,39.2,35.6,87,30.10,7.0,NNW,11.5,-,0.00,,Overcast,330,2013-01-01 11:06:00
5:53 AM,39.0,35.1,86,30.13,7.0,NNW,12.7,-,0.00,Rain,Light Rain,340,2013-01-01 11:53:00
6:46 AM,37.4,35.6,93,30.14,7.0,NW,9.2,-,0.00,,Overcast,320,2013-01-01 12:46:00
6:53 AM,37.9,35.1,89,30.15,7.0,NNW,9.2,-,0.00,,Overcast,330,2013-01-01 12:53:00
7:37 AM,37.4,35.6,93,30.14,7.0,NNW,8.1,-,N/A,,Overcast,340,2013-01-01 13:37:00
7:44 AM,37.4,35.6,93,30.15,7.0,NNW,10.4,-,N/A,,Overcast,340,2013-01-01 13:44:00
7:53 AM,37.9,36.0,93,30.19,7.0,NW,11.5,-,N/A,,Overcast,320,2013-01-01 13:53:00
8:53 AM,37.0,35.1,93,30.22,6.0,NW,13.8,-,N/A,,Overcast,320,2013-01-01 14:53:00
9:14 AM,37.4,33.8,87,30.20,6.0,NNW,13.8,-,N/A,,Overcast,330,2013-01-01 15:14:00
9:53 AM,37.9,33.1,83,30.24,7.0,NNW,13.8,-,N/A,,Overcast,330,2013-01-01 15:53:00
10:36 AM,37.4,33.8,87,30.25,6.0,NW,13.8,-,N/A,,Haze,320,2013-01-01 16:36:00
10:53 AM,37.9,33.1,83,30.27,8.0,NW,12.7,-,N/A,,Overcast,320,2013-01-01 16:53:00
11:53 AM,39.9,33.1,77,30.25,8.0,NNW,12.7,20.7,N/A,,Overcast,330,2013-01-01 17:53:00
12:53 PM,39.0,32.0,76,30.24,8.0,NNW,11.5,-,N/A,,Overcast,330,2013-01-01 18:53:00
1:53 PM,37.9,30.9,76,30.23,9.0,NNW,12.7,23.0,N/A,,Overcast,330,2013-01-01 19:53:00
2:53 PM,37.9,30.0,73,30.23,10.0,NNW,16.1,-,N/A,,Overcast,340,2013-01-01 20:53:00
3:53 PM,37.0,28.9,73,30.25,10.0,NNW,12.7,-,N/A,,Overcast,330,2013-01-01 21:53:00
4:53 PM,35.1,28.0,76,30.27,10.0,NNW,15.0,-,N/A,,Overcast,340,2013-01-01 22:53:00
5:53 PM,35.1,28.0,76,30.29,10.0,NNW,13.8,-,N/A,,Overcast,340,2013-01-01 23:53:00
6:53 PM,35.1,28.0,76,30.29,10.0,North,10.4,-,N/A,,Overcast,350,2013-01-02 00:53:00
7:53 PM,35.1,28.0,76,30.30,10.0,NNW,8.1,-,N/A,,Overcast,340,2013-01-02 01:53:00
8:53 PM,35.1,27.0,72,30.30,8.0,North,9.2,-,N/A,,Overcast,350,2013-01-02 02:53:00
9:53 PM,34.0,28.0,79,30.32,10.0,North,4.6,-,N/A,,Overcast,350,2013-01-02 03:53:00
10:53 PM,34.0,26.1,73,30.33,10.0,NNW,6.9,-,N/A,,Overcast,330,2013-01-02 04:53:00
11:53 PM,34.0,26.1,73,30.32,10.0,NNW,9.2,-,N/A,,Overcast,330,2013-01-02 05:53:00